User: anonymous   Login
Location: Unspecified
(0.0000°N, 0.0000°E)
Time: 07:09:50
(UTC+00:00)
Language:

Cosmos 1861 - Orbit

View from above orbital plane
View from above orbital plane
View from above satellite
View from above satellite

Ground track
Ground track

The orbit data is extracted from the following two-line orbital elements,

1 18129U 87054A   18016.67435716  .00000033  00000-0  19925-4 0  9996
2 18129  82.9255  77.6132 0011078 210.0679 264.4103 13.73003279531769
Epoch (UTC): 16 January 2018 16:11:04
Eccentricity: 0.0011078
inclination: 82.9255°
perigee height: 980 km
apogee height: 997 km
right ascension of ascending node: 77.6132°
argument of perigee: 210.0679°
revolutions per day: 13.73003279
mean anomaly at epoch: 264.4103°
orbit number at epoch: 53176

The dashed part of the orbit path shows where the satellite is in the earth's shadow,  

DLR